Location: Copper Breaks State Park
(34.1132°N, 99.7492°W)
Time: 12:35:18
(UTC-05:00)

SL-16 R/B - Visible Passes

Search period start: 31 July 2014 00:00
Search period end: 10 August 2014 00:00
Orbit: 985 x 1007 km, 99.2° (Epoch: 30 July)

Date Brightness Start Highest point End Pass type
(mag) Time Alt. Az. Time Alt. Az. Time Alt. Az.
31 Jul 3.8 05:07:11 10° SE 05:13:02 43° ENE 05:18:52 10° N visible
01 Aug 5.6 04:00:14 10° ENE 04:01:11 10° ENE 04:02:08 10° NE visible
01 Aug 2.7 05:37:33 10° SSE 05:43:48 79° ENE 05:50:02 10° N visible
02 Aug 5.0 04:27:17 10° ESE 04:31:35 20° ENE 04:35:54 10° NNE visible
02 Aug 2.6 06:08:34 10° S 06:14:41 58° W 06:20:50 10° NNW visible
03 Aug 4.1 04:56:35 10° SE 05:02:09 36° ENE 05:07:44 10° N visible
04 Aug 3.0 05:26:43 10° SSE 05:32:52 65° ENE 05:39:02 10° N visible
05 Aug 5.2 04:17:10 10° E 04:20:47 16° ENE 04:24:23 10° NNE visible
05 Aug 2.5 05:57:31 10° S 06:03:44 71° WSW 06:09:57 10° NNW visible
06 Aug 4.4 04:46:04 10° SE 04:51:18 29° ENE 04:56:32 10° N visible
07 Aug 3.4 05:15:57 10° SE 05:21:58 53° ENE 05:27:59 10° N visible
08 Aug 5.4 04:07:22 10° E 04:10:00 13° ENE 04:12:38 10° NE visible
08 Aug 2.5 05:46:32 10° SSE 05:52:47 86° WSW 05:59:02 10° NNW visible
09 Aug 4.7 04:35:40 10° ESE 04:40:28 24° ENE 04:45:15 10° NNE visible
09 Aug 2.8 06:17:45 10° S 06:23:43 47° W 06:29:42 10° NNW visible
